User: anonymous   Login
Location: Peterborough
(44.3091°N, 78.3197°W)
Time: 05:51:12
(UTC-04:00)
Language:

Explorer 11/Cluster Stage 4 - Orbit

View from above orbital plane
View from above orbital plane
View from above satellite
View from above satellite

Ground track
Ground track

The orbit data is extracted from the following two-line orbital elements,

1 00107U 61013A   23091.89756741  .00003173  00000-0  40353-3 0  9993
2 00107  28.7851 182.8643 0535905  65.8719 299.6947 14.11709356110067
Epoch (UTC): 01 April 2023 21:32:29
Eccentricity: 0.0535905
inclination: 28.7851°
perigee height: 466 km
apogee height: 1241 km
right ascension of ascending node: 182.8643°
argument of perigee: 65.8719°
revolutions per day: 14.11709356
mean anomaly at epoch: 299.6947°
orbit number at epoch: 11006

The dashed part of the orbit path shows where the satellite is in the earth's shadow,  

DLR